PIMOHWEATHER Station Historical Data
Daily Summary for August 05, 2020 Units:  Metric    English   Both
Daily Weekly Monthly Yearly
  High: Low: Average:
Temperature: 34.0 °C -40.0 °C 29.1 °C
Dew Point: 27.0 °C 0.0 °C 24.3 °C
Humidity: 91% 10% 74%
Wind Speed: 37km/h 0km/h 9.1km/h
Wind Gust: 48km/h - -
Wind- - South
Pressure: 1013.8 hPa 1010.4 hPa -
Precipitation: 0.89 mm    
 
 
Tabular Data for August 05, 2020
Time Temperature Dew Point Pressure Wind Wind Speed Wind Gust Humidity Rainfall Rate (Hourly) solar
00:09 27.0 °C 24.0 °C 1012.4 hPa NE 4 km/h 4 km/h 88% 0.00 mm 0.00 W/m2
00:14 27.0 °C 24.0 °C 1012.2 hPa NE 6 km/h 8 km/h 87% 0.00 mm 0.00 W/m2
00:19 27.0 °C 24.0 °C 1012.4 hPa NE 6 km/h 8 km/h 88% 1.80 mm 0.00 W/m2
00:24 27.0 °C 24.0 °C 1012.2 hPa NNW 9 km/h 12 km/h 88% 1.80 mm 0.00 W/m2
00:29 26.0 °C 25.0 °C 1012.3 hPa North 5 km/h 8 km/h 89% 1.80 mm 0.00 W/m2
00:34 26.0 °C 25.0 °C 1012.3 hPa North 5 km/h 8 km/h 90% 0.00 mm 0.00 W/m2
00:39 26.0 °C 25.0 °C 1012.2 hPa North 8 km/h 12 km/h 90% 0.00 mm 0.00 W/m2
00:44 26.0 °C 25.0 °C 1012.3 hPa NNW 9 km/h 12 km/h 91% 0.00 mm 0.00 W/m2
00:49 26.0 °C 25.0 °C 1012.4 hPa NNE 10 km/h 12 km/h 91% 0.00 mm 0.00 W/m2
00:54 26.0 °C 25.0 °C 1012.3 hPa NNE 13 km/h 16 km/h 91% 0.00 mm 0.00 W/m2
00:59 26.0 °C 25.0 °C 1012.4 hPa North 12 km/h 12 km/h 91% 0.00 mm 0.00 W/m2
01:04 26.0 °C 25.0 °C 1012.2 hPa North 10 km/h 12 km/h 90% 0.00 mm 0.00 W/m2
01:09 26.0 °C 24.0 °C 1012.3 hPa North 9 km/h 12 km/h 89% 0.00 mm 0.00 W/m2
01:14 27.0 °C 25.0 °C 1012.2 hPa North 1 km/h 4 km/h 89% 0.00 mm 0.00 W/m2
01:19 27.0 °C 25.0 °C 1012.0 hPa North 2 km/h 4 km/h 89% 0.00 mm 0.00 W/m2
01:24 27.0 °C 25.0 °C 1011.8 hPa NNE 6 km/h 8 km/h 88% 0.00 mm 0.00 W/m2
01:29 26.0 °C 24.0 °C 1011.9 hPa NNE 5 km/h 8 km/h 88% 0.00 mm 0.00 W/m2
01:34 26.0 °C 24.0 °C 1011.9 hPa NNE 9 km/h 12 km/h 89% 0.00 mm 0.00 W/m2
01:39 27.0 °C 25.0 °C 1011.9 hPa NNE 4 km/h 4 km/h 89% 0.00 mm 0.00 W/m2
01:42 27.0 °C 24.0 °C 1012.2 hPa NNE 4 km/h 4 km/h 88% 0.00 mm 0.00 W/m2
01:54 27.0 °C 24.0 °C 1011.8 hPa NNW 5 km/h 8 km/h 87% 0.00 mm 0.00 W/m2
01:59 27.0 °C 24.0 °C 1011.9 hPa North 4 km/h 4 km/h 88% 0.00 mm 0.00 W/m2
02:04 27.0 °C 25.0 °C 1012.0 hPa NE 5 km/h 8 km/h 87% 0.00 mm 0.00 W/m2
02:09 27.0 °C 24.0 °C 1012.0 hPa NE 5 km/h 8 km/h 86% 0.00 mm 0.00 W/m2
02:14 27.0 °C 24.0 °C 1012.0 hPa NE 8 km/h 12 km/h 84% 0.00 mm 0.00 W/m2
02:19 27.0 °C 24.0 °C 1012.2 hPa NE 8 km/h 8 km/h 85% 0.00 mm 0.00 W/m2
02:24 27.0 °C 24.0 °C 1012.2 hPa NE 6 km/h 8 km/h 85% 0.00 mm 0.00 W/m2
02:29 27.0 °C 24.0 °C 1011.9 hPa NE 8 km/h 12 km/h 85% 0.00 mm 0.00 W/m2
02:34 27.0 °C 24.0 °C 1012.0 hPa NNE 8 km/h 12 km/h 85% 0.00 mm 0.00 W/m2
02:39 27.0 °C 24.0 °C 1012.0 hPa NNE 8 km/h 8 km/h 84% 0.00 mm 0.00 W/m2
02:44 27.0 °C 24.0 °C 1012.0 hPa NNE 1 km/h 4 km/h 85% 0.00 mm 0.00 W/m2
02:49 27.0 °C 24.0 °C 1011.9 hPa Calm     84% 0.00 mm 0.00 W/m2
02:54 27.0 °C 24.0 °C 1012.0 hPa Calm   4 km/h 84% 0.00 mm 0.00 W/m2
02:59 27.0 °C 24.0 °C 1012.0 hPa NNE 3 km/h 4 km/h 83% 0.00 mm 0.00 W/m2
03:04 27.0 °C 24.0 °C 1011.9 hPa NNE 5 km/h 8 km/h 84% 0.00 mm 0.00 W/m2
03:09 27.0 °C 24.0 °C 1011.8 hPa NNE 8 km/h 8 km/h 84% 0.00 mm 0.00 W/m2
03:14 27.0 °C 24.0 °C 1011.6 hPa NNE 4 km/h 4 km/h 85% 0.00 mm 0.00 W/m2
03:19 27.0 °C 24.0 °C 1011.5 hPa Calm     85% 0.00 mm 0.00 W/m2
03:24 27.0 °C 24.0 °C 1011.5 hPa Calm     84% 0.00 mm 0.00 W/m2
03:26 27.0 °C 24.0 °C 1011.3 hPa NNE 1 km/h 4 km/h 84% 0.00 mm 0.00 W/m2
03:34 27.0 °C 24.0 °C 1011.4 hPa Calm     83% 0.00 mm 0.00 W/m2
03:39 27.0 °C 24.0 °C 1011.5 hPa Calm     84% 0.00 mm 0.00 W/m2
03:44 27.0 °C 24.0 °C 1011.5 hPa Calm     83% 0.00 mm 0.00 W/m2
03:49 27.0 °C 24.0 °C 1011.8 hPa Calm     84% 0.00 mm 0.00 W/m2
03:54 27.0 °C 24.0 °C 1011.8 hPa NNE 1 km/h 4 km/h 84% 0.00 mm 0.00 W/m2
03:59 27.0 °C 24.0 °C 1011.8 hPa NNE 3 km/h 4 km/h 83% 0.00 mm 0.00 W/m2
04:04 27.0 °C 24.0 °C 1011.7 hPa NNE 8 km/h 8 km/h 84% 0.00 mm 0.00 W/m2
04:09 27.0 °C 24.0 °C 1011.7 hPa South 9 km/h 12 km/h 85% 0.00 mm 0.00 W/m2
04:14 27.0 °C 24.0 °C 1011.7 hPa South 8 km/h 8 km/h 85% 0.00 mm 0.00 W/m2
04:19 27.0 °C 24.0 °C 1011.7 hPa South 8 km/h 8 km/h 85% 0.00 mm 0.00 W/m2
04:24 27.0 °C 24.0 °C 1011.5 hPa SSE 10 km/h 12 km/h 85% 0.00 mm 0.00 W/m2
04:29 27.0 °C 24.0 °C 1011.6 hPa SSE 7 km/h 8 km/h 86% 0.00 mm 0.00 W/m2
04:34 27.0 °C 24.0 °C 1011.7 hPa SSE 7 km/h 8 km/h 86% 0.00 mm 0.00 W/m2
04:39 27.0 °C 25.0 °C 1011.8 hPa South 4 km/h 4 km/h 86% 0.00 mm 0.00 W/m2
04:44 27.0 °C 24.0 °C 1011.6 hPa South 4 km/h 4 km/h 85% 0.00 mm 0.00 W/m2
04:49 27.0 °C 24.0 °C 1011.7 hPa SSE 4 km/h 4 km/h 85% 0.00 mm 0.00 W/m2
04:54 27.0 °C 25.0 °C 1011.6 hPa SSE 1 km/h 4 km/h 86% 0.00 mm 0.00 W/m2
04:59 27.0 °C 25.0 °C 1011.6 hPa South 8 km/h 12 km/h 86% 0.00 mm 0.00 W/m2
05:04 27.0 °C 24.0 °C 1011.7 hPa South 5 km/h 8 km/h 85% 0.00 mm 0.00 W/m2
05:09 27.0 °C 25.0 °C 1011.7 hPa South 4 km/h 4 km/h 86% 0.00 mm 0.00 W/m2
05:10 27.0 °C 24.0 °C 1011.4 hPa Calm     84% 0.00 mm 0.00 W/m2
05:19 27.0 °C 24.0 °C 1011.5 hPa Calm     84% 0.00 mm 0.00 W/m2
05:24 27.0 °C 24.0 °C 1011.4 hPa Calm     84% 0.00 mm 0.00 W/m2
05:29 27.0 °C 24.0 °C 1011.4 hPa ESE 8 km/h 8 km/h 84% 0.00 mm 0.00 W/m2
05:34 27.0 °C 24.0 °C 1011.5 hPa NE 5 km/h 8 km/h 84% 0.00 mm 0.00 W/m2
05:39 27.0 °C 25.0 °C 1011.2 hPa NNE 12 km/h 12 km/h 86% 0.00 mm 0.36 W/m2
05:44 27.0 °C 25.0 °C 1011.2 hPa North 13 km/h 16 km/h 89% 0.00 mm 2.08 W/m2
05:49 27.0 °C 25.0 °C 1011.0 hPa North 12 km/h 16 km/h 90% 0.00 mm 5.99 W/m2
05:54 26.0 °C 25.0 °C 1011.2 hPa North 14 km/h 16 km/h 90% 0.00 mm 11.25 W/m2
05:59 26.0 °C 25.0 °C 1011.2 hPa North 10 km/h 12 km/h 90% 0.00 mm 17.73 W/m2
06:04 27.0 °C 25.0 °C 1011.3 hPa North 12 km/h 12 km/h 89% 0.00 mm 25.07 W/m2
06:09 27.0 °C 25.0 °C 1011.3 hPa North 6 km/h 8 km/h 89% 0.00 mm 31.19 W/m2
06:14 27.0 °C 25.0 °C 1011.1 hPa North 10 km/h 12 km/h 89% 0.00 mm 39.02 W/m2
06:19 27.0 °C 25.0 °C 1011.1 hPa North 10 km/h 12 km/h 89% 0.00 mm 47.22 W/m2
06:24 27.0 °C 25.0 °C 1011.3 hPa NNE 10 km/h 12 km/h 89% 0.00 mm 56.76 W/m2
06:29 27.0 °C 25.0 °C 1011.6 hPa North 11 km/h 12 km/h 90% 0.00 mm 68.02 W/m2
06:34 27.0 °C 25.0 °C 1011.6 hPa NNW 16 km/h 20 km/h 90% 0.00 mm 77.19 W/m2
06:39 27.0 °C 25.0 °C 1011.7 hPa NNW 16 km/h 20 km/h 91% 0.00 mm 85.39 W/m2
06:44 27.0 °C 25.0 °C 1011.6 hPa North 13 km/h 20 km/h 90% 0.00 mm 96.65 W/m2
06:49 27.0 °C 25.0 °C 1011.5 hPa NW 13 km/h 16 km/h 89% 0.00 mm 103.61 W/m2
06:54 27.0 °C 25.0 °C 1011.7 hPa NNW 10 km/h 12 km/h 88% 0.00 mm 107.04 W/m2
06:59 27.0 °C 25.0 °C 1011.5 hPa North 7 km/h 8 km/h 88% 0.00 mm 113.16 W/m2
07:04 27.0 °C 25.0 °C 1011.2 hPa NNW 14 km/h 16 km/h 87% 0.00 mm 121.85 W/m2
07:09 27.0 °C 25.0 °C 1011.3 hPa NNW 12 km/h 12 km/h 86% 0.00 mm 125.76 W/m2
07:14 27.0 °C 25.0 °C 1011.2 hPa NW 8 km/h 8 km/h 85% 0.00 mm 124.90 W/m2
07:19 28.0 °C 24.0 °C 1011.0 hPa NW 11 km/h 12 km/h 83% 0.00 mm 119.64 W/m2
07:24 28.0 °C 25.0 °C 1011.0 hPa NW 9 km/h 12 km/h 83% 0.00 mm 116.58 W/m2
07:29 28.0 °C 24.0 °C 1011.0 hPa NW 7 km/h 8 km/h 81% 0.00 mm 124.90 W/m2
07:34 28.0 °C 24.0 °C 1011.0 hPa NW 8 km/h 8 km/h 81% 0.00 mm 137.87 W/m2
07:39 28.0 °C 25.0 °C 1011.0 hPa WNW 10 km/h 16 km/h 81% 0.00 mm 168.21 W/m2
07:44 28.0 °C 25.0 °C 1011.1 hPa NNW 21 km/h 24 km/h 80% 0.00 mm 207.73 W/m2
07:49 28.0 °C 24.0 °C 1011.2 hPa NW 9 km/h 12 km/h 79% 0.00 mm 241.12 W/m2
07:54 29.0 °C 24.0 °C 1011.3 hPa NW 6 km/h 8 km/h 77% 0.00 mm 313.54 W/m2
07:59 29.0 °C 24.0 °C 1011.3 hPa NNW 19 km/h 20 km/h 76% 0.00 mm 362.12 W/m2
08:04 30.0 °C 24.0 °C 1011.5 hPa SW 5 km/h 8 km/h 75% 0.00 mm 494.48 W/m2
08:09 30.0 °C 24.0 °C 1011.7 hPa SW 10 km/h 12 km/h 73% 0.00 mm 568.62 W/m2
08:14 30.0 °C 24.0 °C 1011.7 hPa WSW 8 km/h 8 km/h 73% 0.00 mm 606.79 W/m2
08:19 30.0 °C 24.0 °C 1011.8 hPa SW 15 km/h 16 km/h 72% 0.00 mm 588.68 W/m2
08:24 30.0 °C 24.0 °C 1011.9 hPa SW 12 km/h 16 km/h 72% 0.00 mm 576.45 W/m2
08:29 30.0 °C 24.0 °C 1012.1 hPa SW 10 km/h 12 km/h 71% 0.00 mm 553.45 W/m2
08:34 31.0 °C 24.0 °C 1012.2 hPa SW 9 km/h 12 km/h 70% 0.00 mm 565.19 W/m2
08:39 31.0 °C 24.0 °C 1012.1 hPa NW 14 km/h 20 km/h 69% 0.00 mm 574.74 W/m2
08:44 31.0 °C 24.0 °C 1012.1 hPa SW 12 km/h 16 km/h 70% 0.00 mm 640.67 W/m2
08:49 31.0 °C 25.0 °C 1012.5 hPa SW 15 km/h 20 km/h 72% 0.00 mm 634.55 W/m2
08:54 31.0 °C 25.0 °C 1012.5 hPa SW 11 km/h 12 km/h 72% 0.00 mm 579.50 W/m2
08:59 30.0 °C 25.0 °C 1012.5 hPa WNW 6 km/h 8 km/h 72% 0.00 mm 587.33 W/m2
09:04 30.0 °C 25.0 °C 1012.6 hPa WSW 10 km/h 12 km/h 71% 0.00 mm 327.00 W/m2
09:09 31.0 °C 25.0 °C 1012.7 hPa SW 5 km/h 8 km/h 71% 0.00 mm 211.64 W/m2
09:14 31.0 °C 25.0 °C 1012.7 hPa SW 12 km/h 16 km/h 72% 0.00 mm 432.45 W/m2
09:19 30.0 °C 25.0 °C 1012.7 hPa WSW 6 km/h 8 km/h 72% 0.00 mm 397.71 W/m2
09:24 30.0 °C 25.0 °C 1012.7 hPa SW 13 km/h 16 km/h 72% 0.00 mm 760.44 W/m2
09:29 31.0 °C 25.0 °C 1012.6 hPa WSW 10 km/h 12 km/h 72% 0.00 mm 812.43 W/m2
09:34 31.0 °C 25.0 °C 1012.6 hPa NW 16 km/h 20 km/h 70% 0.00 mm 872.38 W/m2
09:39 31.0 °C 25.0 °C 1012.6 hPa NNW 15 km/h 20 km/h 72% 0.00 mm 868.46 W/m2
09:44 31.0 °C 25.0 °C 1012.7 hPa NNW 13 km/h 16 km/h 72% 0.00 mm 850.24 W/m2
09:49 31.0 °C 25.0 °C 1012.5 hPa NW 5 km/h 8 km/h 69% 0.00 mm 817.21 W/m2
09:54 32.0 °C 25.0 °C 1012.7 hPa West 5 km/h 8 km/h 67% 0.00 mm 796.41 W/m2
09:59 32.0 °C 25.0 °C 1012.5 hPa SSW 8 km/h 12 km/h 67% 0.00 mm 717.87 W/m2
10:04 32.0 °C 25.0 °C 1012.5 hPa South 20 km/h 24 km/h 67% 0.00 mm 456.31 W/m2
10:09 32.0 °C 24.0 °C 1012.7 hPa SSE 19 km/h 24 km/h 64% 0.00 mm 560.91 W/m2
10:14 32.0 °C 24.0 °C 1012.6 hPa SE 10 km/h 16 km/h 63% 0.00 mm 822.83 W/m2
10:19 33.0 °C 24.0 °C 1012.6 hPa ENE 19 km/h 24 km/h 62% 0.00 mm 832.38 W/m2
10:24 33.0 °C 24.0 °C 1012.5 hPa SSE 11 km/h 16 km/h 62% 0.00 mm 638.11 W/m2
10:29 33.0 °C 24.0 °C 1012.6 hPa NW 12 km/h 16 km/h 60% 0.00 mm 652.79 W/m2
10:34 33.0 °C 24.0 °C 1012.6 hPa SSE 22 km/h 28 km/h 59% 0.00 mm 445.42 W/m2
10:39 33.0 °C 24.0 °C 1012.6 hPa South 14 km/h 20 km/h 58% 0.00 mm 443.35 W/m2
10:44 33.0 °C 24.0 °C 1012.7 hPa SSW 15 km/h 20 km/h 61% 0.00 mm 389.03 W/m2
10:49 33.0 °C 26.0 °C 1012.8 hPa NNW 20 km/h 24 km/h 70% 0.00 mm 335.69 W/m2
10:54 31.0 °C 25.0 °C 1012.8 hPa NNW 29 km/h 32 km/h 71% 0.00 mm 326.64 W/m2
10:59 31.0 °C 25.0 °C 1012.9 hPa NW 9 km/h 12 km/h 70% 0.00 mm 338.26 W/m2
11:04 31.0 °C 25.0 °C 1013.1 hPa NW 6 km/h 8 km/h 70% 0.00 mm 435.52 W/m2
11:09 31.0 °C 25.0 °C 1013.2 hPa NNW 15 km/h 16 km/h 71% 0.00 mm 429.03 W/m2
11:14 31.0 °C 25.0 °C 1013.0 hPa NNE 11 km/h 16 km/h 70% 0.00 mm 481.88 W/m2
11:19 33.0 °C 25.0 °C 1012.9 hPa South 22 km/h 24 km/h 69% 0.00 mm 619.87 W/m2
11:24 33.0 °C 25.0 °C 1013.0 hPa SSE 17 km/h 24 km/h 64% 0.00 mm 621.59 W/m2
11:29 33.0 °C 23.0 °C 1012.8 hPa SE 21 km/h 44 km/h 56% 0.00 mm 625.50 W/m2
11:34 34.0 °C 23.0 °C 1012.7 hPa SE 13 km/h 32 km/h 55% 0.00 mm 601.65 W/m2
11:39 34.0 °C 23.0 °C 1012.6 hPa ENE 23 km/h 40 km/h 55% 0.00 mm 626.36 W/m2
11:44 34.0 °C 23.0 °C 1012.7 hPa NE 27 km/h 36 km/h 54% 0.00 mm 445.91 W/m2
11:49 34.0 °C 24.0 °C 1012.6 hPa NE 21 km/h 36 km/h 57% 0.00 mm 519.19 W/m2
11:54 33.0 °C 23.0 °C 1012.8 hPa NE 35 km/h 40 km/h 55% 0.00 mm 903.58 W/m2
11:59 33.0 °C 26.0 °C 1012.8 hPa NNE 26 km/h 36 km/h 66% 0.00 mm 892.68 W/m2
12:04 32.0 °C 25.0 °C 1012.6 hPa NE 19 km/h 20 km/h 67% 0.00 mm 783.44 W/m2
12:09 33.0 °C 24.0 °C 1012.6 hPa NE 37 km/h 48 km/h 64% 0.00 mm 759.95 W/m2
12:14 33.0 °C 26.0 °C 1012.6 hPa NNE 35 km/h 44 km/h 66% 0.00 mm 581.70 W/m2
12:19 32.0 °C 24.0 °C 1012.5 hPa NNE 23 km/h 28 km/h 65% 0.00 mm 478.82 W/m2
12:24 33.0 °C 24.0 °C 1012.4 hPa NE 28 km/h 40 km/h 62% 0.00 mm 660.24 W/m2
12:29 34.0 °C 23.0 °C 1012.1 hPa NNE 28 km/h 40 km/h 55% 0.00 mm 813.29 W/m2
12:34 34.0 °C 23.0 °C 1012.2 hPa NNE 21 km/h 28 km/h 54% 0.00 mm 732.18 W/m2
12:39 34.0 °C 23.0 °C 1012.2 hPa NE 23 km/h 32 km/h 54% 0.00 mm 799.46 W/m2
12:44 34.0 °C 23.0 °C 1012.2 hPa NE 28 km/h 40 km/h 55% 0.00 mm 763.50 W/m2
12:49 34.0 °C 23.0 °C 1012.3 hPa NNE 16 km/h 24 km/h 54% 0.00 mm 755.67 W/m2
12:54 34.0 °C 23.0 °C 1012.3 hPa NNW 14 km/h 20 km/h 54% 0.00 mm 545.25 W/m2
12:59 34.0 °C 23.0 °C 1012.0 hPa East 8 km/h 12 km/h 54% 0.00 mm 545.25 W/m2
13:04 34.0 °C 23.0 °C 1012.0 hPa NNE 19 km/h 28 km/h 55% 0.00 mm 507.45 W/m2
13:09 34.0 °C 23.0 °C 1012.1 hPa SSE 22 km/h 24 km/h 55% 0.00 mm 619.02 W/m2
13:14 34.0 °C 24.0 °C 1012.0 hPa SSW 21 km/h 24 km/h 58% 0.00 mm 923.15 W/m2
13:19 34.0 °C 25.0 °C 1012.1 hPa West 18 km/h 24 km/h 63% 0.00 mm 329.20 W/m2
13:24 33.0 °C 25.0 °C 1012.1 hPa NW 27 km/h 32 km/h 66% 0.00 mm 285.41 W/m2
13:29 32.0 °C 25.0 °C 1012.1 hPa NW 25 km/h 28 km/h 68% 0.00 mm 139.58 W/m2
13:34 32.0 °C 25.0 °C 1012.1 hPa NW 13 km/h 16 km/h 68% 0.00 mm 177.39 W/m2
13:39 32.0 °C 25.0 °C 1012.1 hPa WSW 14 km/h 20 km/h 68% 0.00 mm 755.67 W/m2
13:44 32.0 °C 25.0 °C 1012.0 hPa West 10 km/h 16 km/h 68% 0.00 mm 786.50 W/m2
13:49 33.0 °C 25.0 °C 1011.6 hPa WNW 13 km/h 20 km/h 66% 0.00 mm 839.34 W/m2
13:54 33.0 °C 25.0 °C 1011.6 hPa WSW 15 km/h 24 km/h 65% 0.00 mm 771.21 W/m2
13:59 33.0 °C 25.0 °C 1011.5 hPa WNW 12 km/h 16 km/h 65% 0.00 mm 720.07 W/m2
14:04 33.0 °C 26.0 °C 1011.5 hPa NW 12 km/h 20 km/h 71% 3.61 mm 226.44 W/m2
14:09 32.0 °C 26.0 °C 1011.5 hPa NW 19 km/h 24 km/h 75% 3.61 mm 114.51 W/m2
14:14 31.0 °C 26.0 °C 1011.5 hPa NW 17 km/h 24 km/h 77% 3.61 mm 119.27 W/m2
14:19 30.0 °C 26.0 °C 1011.3 hPa NNW 20 km/h 24 km/h 77% 0.00 mm 112.67 W/m2
14:24 30.0 °C 25.0 °C 1011.1 hPa NNW 20 km/h 20 km/h 75% 0.00 mm 183.02 W/m2
14:29 30.0 °C 25.0 °C 1011.1 hPa NNW 13 km/h 16 km/h 76% 0.00 mm 238.56 W/m2
14:34 31.0 °C 26.0 °C 1010.9 hPa NW 5 km/h 8 km/h 76% 0.00 mm 261.07 W/m2
14:39 31.0 °C 26.0 °C 1010.8 hPa West 10 km/h 12 km/h 74% 0.00 mm 356.49 W/m2
14:44 31.0 °C 26.0 °C 1010.8 hPa NW 10 km/h 16 km/h 72% 0.00 mm 434.17 W/m2
14:49 32.0 °C 25.0 °C 1010.8 hPa West 7 km/h 12 km/h 70% 0.00 mm 423.28 W/m2
14:54 32.0 °C 25.0 °C 1010.7 hPa SSW 14 km/h 16 km/h 70% 0.00 mm 300.95 W/m2
14:59 32.0 °C 26.0 °C 1010.9 hPa NNW 13 km/h 16 km/h 71% 0.00 mm 239.41 W/m2
15:04 31.0 °C 25.0 °C 1010.7 hPa NNW 15 km/h 20 km/h 71% 0.00 mm 299.23 W/m2
15:09 32.0 °C 26.0 °C 1010.7 hPa WSW 11 km/h 12 km/h 70% 0.00 mm 349.15 W/m2
15:14 32.0 °C 26.0 °C 1010.5 hPa West 8 km/h 12 km/h 70% 0.00 mm 329.20 W/m2
15:19 32.0 °C 26.0 °C 1010.4 hPa SW 9 km/h 12 km/h 70% 0.00 mm 298.37 W/m2
15:24 32.0 °C 26.0 °C 1010.6 hPa WSW 15 km/h 20 km/h 70% 0.00 mm 368.23 W/m2
15:29 32.0 °C 26.0 °C 1010.5 hPa South 18 km/h 24 km/h 68% 0.00 mm 296.17 W/m2
15:34 33.0 °C 24.0 °C 1010.6 hPa ESE 12 km/h 20 km/h 61% 0.00 mm 336.18 W/m2
15:39 33.0 °C 24.0 °C 1010.6 hPa East 12 km/h 16 km/h 60% 0.00 mm 355.63 W/m2
15:44 33.0 °C 24.0 °C 1010.7 hPa SSE 19 km/h 24 km/h 59% 0.00 mm 313.18 W/m2
15:49 33.0 °C 24.0 °C 1010.8 hPa SE 10 km/h 16 km/h 59% 0.00 mm 327.00 W/m2
15:54 33.0 °C 24.0 °C 1011.2 hPa NNW 10 km/h 16 km/h 58% 0.00 mm 282.35 W/m2
15:59 33.0 °C 24.0 °C 1011.0 hPa SE 10 km/h 12 km/h 59% 0.00 mm 269.38 W/m2
16:04 33.0 °C 24.0 °C 1011.0 hPa ENE 10 km/h 16 km/h 58% 0.00 mm 331.40 W/m2
16:09 33.0 °C 24.0 °C 1010.8 hPa SE 9 km/h 16 km/h 59% 0.00 mm 291.40 W/m2
16:14 33.0 °C 24.0 °C 1010.8 hPa ESE 7 km/h 12 km/h 58% 0.00 mm 366.03 W/m2
16:19 33.0 °C 24.0 °C 1010.8 hPa ENE 10 km/h 16 km/h 58% 0.00 mm 282.84 W/m2
16:24 33.0 °C 24.0 °C 1010.7 hPa East 8 km/h 12 km/h 58% 0.00 mm 253.24 W/m2
16:29 -40.0 °C 0.0 °C 1010.8 hPa Calm     10% 0.00 mm 0.00 W/m2
16:34 -40.0 °C 0.0 °C 1010.7 hPa Calm     10% 0.00 mm 0.00 W/m2
16:39 -40.0 °C 0.0 °C 1010.8 hPa Calm     10% 0.00 mm 0.00 W/m2
16:44 32.0 °C 27.0 °C 1010.9 hPa Calm     74% 0.00 mm 0.00 W/m2
16:49 32.0 °C 27.0 °C 1011.1 hPa Calm     74% 0.00 mm 0.00 W/m2
16:54 32.0 °C 27.0 °C 1011.0 hPa Calm     74% 0.00 mm 0.00 W/m2
16:59 32.0 °C 27.0 °C 1011.1 hPa Calm     74% 0.00 mm 0.00 W/m2
17:04 32.0 °C 27.0 °C 1011.1 hPa Calm     74% 0.00 mm 0.00 W/m2
17:09 32.0 °C 27.0 °C 1011.0 hPa Calm     73% 0.00 mm 0.00 W/m2
17:14 32.0 °C 27.0 °C 1011.2 hPa Calm     73% 0.00 mm 0.00 W/m2
17:19 32.0 °C 27.0 °C 1011.2 hPa Calm     74% 0.00 mm 0.00 W/m2
17:24 32.0 °C 27.0 °C 1011.4 hPa Calm     74% 0.00 mm 0.00 W/m2
17:29 32.0 °C 27.0 °C 1011.3 hPa Calm     74% 0.00 mm 0.00 W/m2
17:34 32.0 °C 27.0 °C 1011.4 hPa Calm     74% 0.00 mm 0.00 W/m2
17:39 32.0 °C 27.0 °C 1011.5 hPa Calm     74% 0.00 mm 0.00 W/m2
17:44 32.0 °C 27.0 °C 1011.6 hPa Calm     74% 0.00 mm 0.00 W/m2
17:49 32.0 °C 27.0 °C 1011.7 hPa Calm     74% 0.00 mm 0.00 W/m2
17:54 32.0 °C 27.0 °C 1011.7 hPa Calm     74% 0.00 mm 0.00 W/m2
17:59 32.0 °C 27.0 °C 1011.6 hPa Calm     74% 0.00 mm 0.00 W/m2
18:04 32.0 °C 27.0 °C 1011.8 hPa Calm     74% 0.00 mm 0.00 W/m2
18:09 32.0 °C 27.0 °C 1011.7 hPa Calm     74% 0.00 mm 0.00 W/m2
18:14 32.0 °C 27.0 °C 1011.8 hPa Calm     74% 0.00 mm 0.00 W/m2
18:19 32.0 °C 27.0 °C 1011.8 hPa Calm     74% 0.00 mm 0.00 W/m2
18:24 32.0 °C 27.0 °C 1011.8 hPa Calm     73% 0.00 mm 0.00 W/m2
18:29 32.0 °C 27.0 °C 1011.9 hPa Calm     73% 0.00 mm 0.00 W/m2
18:34 32.0 °C 27.0 °C 1012.2 hPa Calm     73% 0.00 mm 0.00 W/m2
18:39 32.0 °C 27.0 °C 1012.2 hPa Calm     73% 0.00 mm 0.00 W/m2
18:44 32.0 °C 27.0 °C 1012.1 hPa Calm     73% 0.00 mm 0.00 W/m2
18:49 32.0 °C 26.0 °C 1012.2 hPa Calm     72% 0.00 mm 0.00 W/m2
18:54 32.0 °C 27.0 °C 1012.2 hPa Calm     72% 0.00 mm 0.00 W/m2
18:59 32.0 °C 27.0 °C 1012.3 hPa Calm     72% 0.00 mm 0.00 W/m2
19:04 32.0 °C 27.0 °C 1012.3 hPa Calm     72% 0.00 mm 0.00 W/m2
19:09 32.0 °C 27.0 °C 1012.7 hPa Calm     73% 0.00 mm 0.00 W/m2
19:14 32.0 °C 27.0 °C 1012.7 hPa Calm     72% 0.00 mm 0.00 W/m2
19:19 32.0 °C 27.0 °C 1012.7 hPa Calm     73% 0.00 mm 0.00 W/m2
19:24 32.0 °C 26.0 °C 1012.8 hPa Calm     71% 0.00 mm 0.00 W/m2
19:29 32.0 °C 26.0 °C 1012.7 hPa Calm     71% 0.00 mm 0.00 W/m2
19:34 32.0 °C 27.0 °C 1012.8 hPa Calm     72% 0.00 mm 0.00 W/m2
19:39 32.0 °C 27.0 °C 1013.0 hPa Calm     72% 0.00 mm 0.00 W/m2
19:44 32.0 °C 26.0 °C 1012.9 hPa ENE 3 km/h 4 km/h 71% 0.00 mm 0.00 W/m2
19:49 30.0 °C 23.0 °C 1012.9 hPa ENE 4 km/h 8 km/h 64% 0.00 mm 0.00 W/m2
19:54 30.0 °C 23.0 °C 1013.1 hPa East 5 km/h 8 km/h 64% 0.00 mm 0.00 W/m2
19:59 30.0 °C 23.0 °C 1013.3 hPa ENE 7 km/h 8 km/h 64% 0.00 mm 0.00 W/m2
20:04 30.0 °C 23.0 °C 1013.3 hPa NE 13 km/h 20 km/h 64% 0.00 mm 0.00 W/m2
20:09 30.0 °C 23.0 °C 1013.5 hPa NE 9 km/h 16 km/h 64% 0.00 mm 0.00 W/m2
20:14 30.0 °C 23.0 °C 1013.4 hPa ENE 11 km/h 20 km/h 64% 0.00 mm 0.00 W/m2
20:18 30.0 °C 23.0 °C 1013.3 hPa East 6 km/h 12 km/h 64% 0.00 mm 0.00 W/m2
20:29 30.0 °C 23.0 °C 1013.4 hPa ENE 9 km/h 16 km/h 65% 0.00 mm 0.00 W/m2
20:34 30.0 °C 23.0 °C 1013.5 hPa SE 14 km/h 16 km/h 66% 0.00 mm 0.00 W/m2
20:39 30.0 °C 23.0 °C 1013.6 hPa SE 10 km/h 16 km/h 66% 0.00 mm 0.00 W/m2
20:44 30.0 °C 23.0 °C 1013.5 hPa NE 10 km/h 16 km/h 66% 0.00 mm 0.00 W/m2
20:49 30.0 °C 23.0 °C 1013.6 hPa ENE 5 km/h 12 km/h 66% 0.00 mm 0.00 W/m2
20:54 30.0 °C 23.0 °C 1013.7 hPa East 11 km/h 16 km/h 65% 0.00 mm 0.00 W/m2
20:59 30.0 °C 23.0 °C 1013.6 hPa SE 8 km/h 12 km/h 66% 0.00 mm 0.00 W/m2
21:04 30.0 °C 23.0 °C 1013.6 hPa SE 9 km/h 12 km/h 66% 0.00 mm 0.00 W/m2
21:09 30.0 °C 23.0 °C 1013.7 hPa ESE 5 km/h 12 km/h 66% 0.00 mm 0.00 W/m2
21:14 30.0 °C 23.0 °C 1013.7 hPa SE 5 km/h 12 km/h 67% 0.00 mm 0.00 W/m2
21:19 30.0 °C 23.0 °C 1013.7 hPa SE 8 km/h 12 km/h 67% 0.00 mm 0.00 W/m2
21:24 30.0 °C 23.0 °C 1013.6 hPa SE 5 km/h 8 km/h 67% 0.00 mm 0.00 W/m2
21:29 30.0 °C 23.0 °C 1013.6 hPa SSE 6 km/h 8 km/h 67% 0.00 mm 0.00 W/m2
21:34 30.0 °C 23.0 °C 1013.7 hPa ESE 8 km/h 16 km/h 68% 0.00 mm 0.00 W/m2
21:39 30.0 °C 23.0 °C 1013.8 hPa SE 9 km/h 16 km/h 68% 0.00 mm 0.00 W/m2
21:44 30.0 °C 23.0 °C 1013.8 hPa SE 7 km/h 12 km/h 68% 0.00 mm 0.00 W/m2
21:49 29.0 °C 23.0 °C 1013.8 hPa East 6 km/h 12 km/h 68% 0.00 mm 0.00 W/m2
21:54 29.0 °C 23.0 °C 1013.7 hPa ESE 5 km/h 8 km/h 68% 0.00 mm 0.00 W/m2
21:59 29.0 °C 23.0 °C 1013.5 hPa ENE 6 km/h 8 km/h 68% 0.00 mm 0.00 W/m2
22:02 29.0 °C 23.0 °C 1013.8 hPa NE 9 km/h 12 km/h 68% 0.00 mm 0.00 W/m2
22:09 29.0 °C 23.0 °C 1013.5 hPa NE 10 km/h 12 km/h 68% 0.00 mm 0.00 W/m2
22:14 29.0 °C 23.0 °C 1013.8 hPa NE 8 km/h 12 km/h 68% 0.00 mm 0.00 W/m2
22:19 29.0 °C 23.0 °C 1013.6 hPa NNE 10 km/h 12 km/h 70% 0.00 mm 0.00 W/m2
22:24 29.0 °C 23.0 °C 1013.6 hPa NNE 9 km/h 12 km/h 71% 0.00 mm 0.00 W/m2
22:29 29.0 °C 23.0 °C 1013.5 hPa NNE 9 km/h 12 km/h 72% 0.00 mm 0.00 W/m2
22:34 29.0 °C 23.0 °C 1013.5 hPa NW 17 km/h 20 km/h 73% 0.00 mm 0.00 W/m2
22:39 29.0 °C 23.0 °C 1013.4 hPa NNW 18 km/h 24 km/h 74% 0.00 mm 0.00 W/m2
22:44 28.0 °C 23.0 °C 1013.3 hPa NW 10 km/h 12 km/h 74% 0.00 mm 0.00 W/m2
22:49 28.0 °C 23.0 °C 1013.2 hPa North 13 km/h 16 km/h 74% 0.00 mm 0.00 W/m2
22:54 28.0 °C 23.0 °C 1013.2 hPa North 10 km/h 16 km/h 74% 0.00 mm 0.00 W/m2
22:59 28.0 °C 23.0 °C 1013.2 hPa North 10 km/h 12 km/h 74% 0.00 mm 0.00 W/m2
23:04 28.0 °C 23.0 °C 1013.3 hPa NNE 8 km/h 8 km/h 74% 0.00 mm 0.00 W/m2
23:09 28.0 °C 23.0 °C 1013.3 hPa North 9 km/h 12 km/h 75% 0.00 mm 0.00 W/m2
23:14 28.0 °C 23.0 °C 1013.2 hPa North 8 km/h 8 km/h 75% 0.00 mm 0.00 W/m2
23:19 28.0 °C 23.0 °C 1013.2 hPa NNW 8 km/h 8 km/h 75% 0.00 mm 0.00 W/m2
23:24 28.0 °C 23.0 °C 1013.1 hPa NW 8 km/h 12 km/h 75% 0.00 mm 0.00 W/m2
23:29 28.0 °C 23.0 °C 1013.1 hPa NW 8 km/h 8 km/h 75% 0.00 mm 0.00 W/m2
23:34 28.0 °C 24.0 °C 1013.1 hPa NW 4 km/h 4 km/h 75% 0.00 mm 0.00 W/m2
23:39 28.0 °C 24.0 °C 1013.1 hPa NW 4 km/h 4 km/h 75% 0.00 mm 0.00 W/m2
23:44 28.0 °C 24.0 °C 1013.3 hPa NW 4 km/h 4 km/h 75% 0.00 mm 0.00 W/m2
23:46 28.0 °C 23.0 °C 1013.3 hPa NW 2 km/h 4 km/h 75% 0.00 mm 0.00 W/m2
23:54 28.0 °C 23.0 °C 1013.2 hPa NW 4 km/h 4 km/h 76% 0.00 mm 0.00 W/m2
23:59 28.0 °C 23.0 °C 1013.2 hPa NW 5 km/h 8 km/h 76% 0.00 mm 0.00 W/m2
PIMOHWEATHER Philippines
Compliments of Weather Underground - 2 mb